Lid_Strength_Index
2 2 2 3 3 5 3 2 6 1 0 5 5 6 6 7 5 4 5 5 6 6 6 7 7 7 6 4 5 6 5 7 10 8 5 5 6 7 7 10 14 11 11 16
2 2 2 3 4 5 4 4 5 2 2 7 6 5 5 4 5 5 5 6 5 5 6 7 6 6 5 4 5 6 5 7 10 12 7 6 7 6 7 7 7 9 13 13
2 2 2 3 4 4 4 4 7 4 3 3 5 6 6 6 4 5 4 5 4 5 6 5 6 6 5 5 4 2 3 7 8 12 12 9 9 7 7 7 9 9 11 8
2 2 2 3 3 4 3 4 8 6 7 5 5 5 5 6 6 4 4 5 6 6 7 6 7 6 5 5 5 4 5 8 7 9 9 9 8 8 7 8 7 9 8 8
2 2 2 3 3 4 2 5 7 6 7 4 5 6 6 6 5 5 6 6 5 5 7 6 7 6 5 6 5 5 5 8 8 10 8 8 8 7 7 7 7 7 7 8
2 2 3 3 3 4 2 2 2 4 7 6 5 5 5 5 5 4 4 5 5 6 5 4 4 4 5 5 5 6 6 7 8 11 9 9 12 9 7 7 7 7 8 8
2 2 3 3 3 4 2 1 2 5 8 6 6 5 5 5 5 5 5 4 6 5 3 3 4 5 6 5 7 6 6 8 9 12 11 16 9 6 7 7 6 5 5 5
3 3 3 3 3 3 3 1 2 5 8 6 7 5 5 4 4 5 5 4 4 3 4 6 8 10 11 9 7 7 5 7 10 14 17 13 10 8 9 8 7 5 5 6
3 3 3 3 3 3 3 1 0 3 6 8 6 6 5 6 6 5 5 3 2 3 5 7 9 11 10 10 8 6 6 6 8 12 15 16 10 6 4 5 9 5 5 5
3 3 4 3 3 3 3 2 0 2 6 4 4 6 6 4 5 6 5 4 5 3 7 8 10 11 9 13 13 13 11 10 10 10 12 11 7 5 4 10 10 5 4 5
3 3 4 4 4 3 4 2 -1 2 4 4 3 3 4 4 5 8 6 5 5 6 8 8 12 13 12 12 10 12 13 14 11 9 10 13 5 5 8 6 4 4 4 4
3 4 4 4 4 4 4 3 -1 -1 3 3 2 2 2 2 3 4 5 7 6 5 7 8 11 12 12 11 14 9 14 11 10 8 9 5 4 5 4 4 4 4 4 4
4 4 4 5 5 4 4 2 0 1 3 3 3 3 2 2 2 1 5 4 3 4 3 5 7 9 7 11 11 8 8 5 7 7 5 5 5 4 3 3 3 3 3 3
4 5 4 5 5 5 5 3 0 1 3 6 4 1 2 1 1 2 2 2 2 3 3 5 6 7 6 7 7 7 6 5 7 7 5 4 4 4 3 3 3 3 3 3
5 5 5 5 5 5 5 3 2 0 3 7 5 2 1 1 1 2 2 2 3 4 5 6 6 5 5 5 5 7 5 5 7 7 5 5 5 3 3 4 4 3 3 3
5 5 5 6 6 5 5 3 1 1 1 4 7 2 2 2 1 2 2 2 3 3 5 5 4 3 5 7 8 4 4 3 4 5 3 3 3 3 2 3 3 3 3 2
5 5 6 6 6 6 4 4 3 5 0 4 6 5 3 2 2 2 3 2 3 3 4 5 5 4 4 6 8 4 4 3 3 3 3 4 3 4 2 2 2 2 2 2
5 5 6 6 6 6 5 3 5 5 2 3 7 6 5 2 4 5 2 4 3 4 4 4 5 5 5 8 5 4 3 3 3 3 3 3 3 3 3 2 2 3 3 3
5 6 6 5 5 3 2 3 4 2 3 6 6 7 8 3 4 4 4 3 6 3 6 5 5 6 8 6 5 4 4 4 4 3 3 3 3 3 3 3 3 3 3 3
6 6 5 5 3 4 3 3 4 4 3 4 7 4 7 4 4 5 5 5 6 8 6 4 7 7 4 3 3 3 3 3 3 4 4 4 4 3 4 4 3 3 3 3
6 6 4 2 4 3 4 6 6 6 7 5 5 5 7 3 6 6 4 7 6 9 7 7 8 8 6 4 3 3 3 3 3 2 2 3 3 4 4 4 3 3 3 3
5 5 3 3 4 5 7 8 6 7 8 5 6 5 4 4 3 6 5 7 7 10 5 8 10 7 4 4 4 3 2 2 3 2 3 3 3 3 3 3 3 2 2 2
4 5 5 6 6 12 10 11 9 8 5 5 5 6 4 4 4 6 6 9 9 6 8 10 8 6 4 4 3 3 2 2 3 3 2 2 3 3 2 3 2 2 2 2
6 7 13 9 9 8 8 7 6 5 4 5 5 5 6 4 6 6 9 8 7 10 11 10 9 6 4 4 3 3 3 3 3 3 3 3 2 2 2 2 2 2 3 3
6 6 12 8 6 6 5 4 5 4 4 4 6 5 5 6 7 6 8 10 11 10 10 9 6 5 4 4 3 3 3 4 3 3 3 2 3 2 2 2 2 2 2 3
5 6 7 6 6 6 5 5 5 3 4 4 6 8 9 8 7 9 9 10 11 9 7 7 5 5 5 4 3 3 3 3 3 3 3 3 3 3 2 3 2 3 2 3
7 7 6 6 6 6 6 5 5 3 5 8 6 10 10 7 9 10 7 8 7 6 7 5 4 4 4 3 3 3 3 3 2 2 2 2 2 2 2 3 3 3 3 2